Find GPS III SV04

NORAD ID: 46826 Int'l Des: 2020-078 Owner: SMC Country: US Constellation: GPS operational
MEOCIRCULARGNSS

实时位置

正在加载3D地球...

关于 GPS III SV04

正在加载描述...

即将过境

Passes for default location (London). Set your location on the main map for personalized predictions.

高度历史

Loading altitude history...

两行轨道根数

1 46826U 20078A 26118.42633653 -.00000028 00000-0 00000+0 0 9993
2 46826 53.9877 212.7963 0071179 205.8633 165.9479 2.00564988 40512
Epoch: Apr 28, 2026 • Age: 82 hours

当前状态

高度 20236.9 km
速度 3.87 km/s
星下点 -38.98°S, 18.77°E
发射日期 Nov 5, 2020
运行时间 5.4 years
类型 navigation

技术详情

分类 Payload
质量 4400.00 kg
干质量 2160.00 kg
总质量 4400.00 kg
长度 3.40 m
直径 1.80 m
跨度 14.00 m
形状 Box + 2 pan
制造商 LMSSD
平台类型 A2100
阶段状态 In Orbit
所有者/国家 SMC/US

Most Searched